国际通讯卫星 29E星 (INTELSAT 29E (IS-29E))

导读

INTELSAT 29E(国际通信卫星29e)是国际通信卫星公司“Epic”系列首颗通信卫星,由美国波音公司基于BSS-702MP平台研制,于2016年1月27日在圭亚那航天中心发射,定点西经50度地球静止轨道。卫星重6552公斤,设计寿命15年,搭载多频段转发器,主要为航空、海事提供移动通信服务。2019年因推进剂泄漏解体全损,产生的轨道碎片对静止轨道安全造成威胁。

Basic Information
目录编号:
41308
目录名称:
INTELSAT 29E
国际标识:
2016-004A
轨道中心:
EARTH
卫星名称:
国际通讯卫星 29E星
卫星全名:
国际通讯卫星 29E星 (INTELSAT 29E (IS-29E))
卫星状态:
在轨 (已飞行3884 天)
发射日期:
2016-01-27 UTC
国别 :
(ITSO)
星等 :
--
This satellite is enrolled in the Space Conjunction Data Service (SCDS) and the current flight risk assessment level is: No High Risk
Orbit Information
数据来源 国际轨道数据 AOE轨道数据
星历时间 2026-09-15T18:52:46+0800
11小时前
查看轨道信息
2026-09-16T05:00:00+0800
1小时前
查看轨道信息
半长轴 42066.449km 42066.477km
偏心率 0.000373 0.0003745
轨道倾角 6.720° 6.721°
近地点辐角 125.851° 126.007°
升交点赤经 69.182° 69.177°
平近点角 78.125° 230.733°
近地点 35672.621km 35672.586km
远地点 35704.003km 35704.094km
周期 1431.079分钟 1431.080分钟
每日圈数 1.006234 1.006233
Detailed Information
卫星平台:
SSL 1300
平衡模式:
三轴稳定
覆盖范围:
全球
运营商:
国际卫星通信公司
运营商所在国:
美国
制造商(研发单位):
波音公司
制造商所在国:
美国
使用方式:
暂无
Satellite Introduction
从1965年4月至1984年3月,国际通信卫星组织发射了5代、6种不同性能的卫星共计35颗,除6颗卫星因运载火箭和远地点发动机故障而发射失败外,其余29颗卫星均被送到了预定的静止轨道位置。1984年8月前后,国际通信卫星组织利用部署在大西洋、太平洋、印度洋上空的15颗国际通信卫星,为遍布世界各地170多个国家或地区提供电话、电传、电报、电视和数据传输等电信业务;该卫星已退役。
2D Orbit Map
3D Orbit Map
Orbit Altitude Analysis Chart
Orbit Inclination Analysis Chart
Orbit Comprehensive Analysis Chart
View Comprehensive Chart
Miss Distance Evolution Trend with All Objects Subscribe to Flight Safety Assessment
Collision Probability Evolution Trend with All Objects Subscribe to Flight Safety Assessment